Grayling, MI

6:31 PM EDT on March 25, 2017 (GMT -0400)
Grayling

Weather History for KGOV - October, 2013

Change the Weather History Date:

Friday, October 4, 2013

  Actual Average (KHTL) Record (KHTL)
Temperature  
Mean Temperature 57 °F -  
Max Temperature 59 °F 60 °F 87 °F (1922)
Min Temperature 55 °F 40 °F 23 °F (2010)
Degree Days  
Heating Degree Days 8    
Growing Degree Days 7 (Base 50)    
Moisture  
Dew Point 58 °F    
Average Humidity 100    
Maximum Humidity 100    
Minimum Humidity 100    
Precipitation  
Precipitation 0.00 in - - ()
Sea Level Pressure  
Sea Level Pressure 30.02 in    
Wind  
Wind Speed 6 mph (ENE)    
Max Wind Speed 13 mph    
Max Gust Speed -    
Visibility 6 miles    
Events Rain    
Averages and records for this station are not official NWS values.
T = Trace of Precipitation, MM = Missing Value Source: NWS Daily Summary

Daily Weather History Graph

Daily Weather History Graph

Search for Another Location

Airport or City:

Trip Planner

Search our weather history database for the weather conditions in past years. The results will help you decide how hot, cold, wet, or windy it might be!

Date:

Astronomy

Oct. 04, 2013 Rise Set
Actual Time 7:40 AM EDT 7:13 PM EDT
Civil Twilight 7:11 AM EDT 7:42 PM EDT
Nautical Twilight 6:37 AM EDT 8:16 PM EDT
Astronomical Twilight 6:03 AM EDT 8:50 PM EDT
Moon 7:15 AM EDT (10/4) 6:53 PM EDT (10/4)
Length of Visible Light 12h 30m
Length of Day
11h 32m
Waning Crescent, 0% of the Moon is Illuminated
Oct 4
Waning Crescent
Oct 4
New
Oct 11
First Quarter
Oct 18
Full
Oct 26
Last Quarter

Hourly Weather History & Observations

Time (EDT) Temp. Dew Point Humidity Pressure Visibility Wind Dir Wind Speed Gust Speed Precip Events Conditions
12:34 AM 59.9 °F 59.9 °F 100% 29.96 in 7.0 mi East 4.6 mph - N/A   Overcast
12:55 AM 59.2 °F 59.2 °F 100% 29.96 in 3.0 mi East 4.6 mph - N/A   Overcast
1:14 AM 59.9 °F 59.9 °F 100% 29.96 in 2.0 mi East 3.5 mph - N/A   Overcast
1:35 AM 59.0 °F 59.0 °F 100% 29.95 in 1.5 mi East 4.6 mph - N/A   Overcast
1:55 AM 58.5 °F 58.5 °F 100% 29.95 in 3.0 mi ENE 4.6 mph - N/A   Overcast
2:14 AM 58.5 °F 58.5 °F 100% 29.94 in 7.0 mi East 6.9 mph - N/A   Overcast
2:35 AM 58.5 °F 58.5 °F 100% 29.95 in 10.0 mi East 4.6 mph - N/A   Overcast
2:54 AM 58.5 °F 58.5 °F 100% 29.94 in 10.0 mi ENE 6.9 mph - N/A   Overcast
3:15 AM 58.5 °F 58.5 °F 100% 29.94 in 10.0 mi ENE 4.6 mph - N/A   Overcast
3:35 AM 58.5 °F 58.5 °F 100% 29.94 in 10.0 mi ENE 5.8 mph - N/A   Overcast
3:55 AM 58.3 °F 58.3 °F 100% 29.94 in 10.0 mi ENE 4.6 mph - N/A   Overcast
4:15 AM 56.7 °F 56.7 °F 100% 29.94 in 10.0 mi ENE 3.5 mph - N/A   Overcast
4:34 AM 58.5 °F 58.5 °F 100% 29.95 in 10.0 mi ENE 4.6 mph - N/A   Overcast
4:55 AM 57.9 °F 57.9 °F 100% 29.95 in 7.0 mi Calm Calm - N/A Rain Heavy Rain
5:15 AM 57.2 °F 57.2 °F 100% 29.96 in 7.0 mi East 3.5 mph - N/A Rain Light Rain
5:34 AM 57.4 °F 57.4 °F 100% 29.96 in 10.0 mi Calm Calm - N/A Rain Light Rain
5:55 AM 56.8 °F 56.8 °F 100% 29.96 in 10.0 mi East 3.5 mph - N/A   Overcast
6:14 AM 56.5 °F 56.5 °F 100% 29.96 in 10.0 mi NNE 4.6 mph - N/A Rain Rain
6:35 AM 56.3 °F 56.3 °F 100% 29.96 in 7.0 mi NNE 4.6 mph - N/A Rain Light Rain
6:55 AM 56.7 °F 56.7 °F 100% 29.97 in 10.0 mi Calm Calm - N/A   Overcast
7:14 AM 57.4 °F 57.4 °F 100% 29.98 in 10.0 mi NNE 4.6 mph - N/A   Overcast
7:35 AM 56.7 °F 56.7 °F 100% 29.98 in 10.0 mi NNE 4.6 mph - N/A   Overcast
7:55 AM 56.8 °F 56.8 °F 100% 29.99 in 7.0 mi NE 5.8 mph - N/A   Overcast
8:14 AM 57.6 °F 57.6 °F 100% 30.00 in 7.0 mi Calm Calm - N/A   Overcast
8:35 AM 58.3 °F 58.3 °F 100% 30.00 in 5.0 mi East 5.8 mph - N/A   Overcast
8:54 AM 58.3 °F 58.3 °F 100% 30.01 in 4.0 mi East 4.6 mph - N/A   Overcast
9:15 AM 58.3 °F 58.3 °F 100% 30.01 in 2.0 mi East 4.6 mph - N/A   Overcast
9:34 AM 56.8 °F 56.8 °F 100% 30.02 in 1.5 mi East 5.8 mph - N/A   Overcast
9:55 AM 58.3 °F 58.3 °F 100% 30.02 in 1.2 mi East 4.6 mph - N/A   Light Drizzle
10:15 AM 58.3 °F 58.3 °F 100% 30.02 in 1.0 mi East 4.6 mph - N/A   Light Drizzle
10:34 AM 58.1 °F 58.1 °F 100% 30.03 in 1.0 mi East 3.5 mph - N/A   Light Drizzle
10:55 AM 58.5 °F 58.5 °F 100% 30.03 in 1.0 mi East 8.1 mph - N/A   Overcast
11:14 AM 58.5 °F 58.5 °F 100% 30.03 in 1.8 mi East 8.1 mph - N/A   Overcast
11:35 AM 58.5 °F 58.5 °F 100% 30.03 in 2.5 mi East 6.9 mph - N/A   Overcast
11:54 AM 59.0 °F 59.0 °F 100% 30.03 in 10.0 mi East 8.1 mph - N/A   Overcast
12:15 PM 58.5 °F 58.5 °F 100% 30.04 in 7.0 mi ENE 8.1 mph - N/A   Overcast
12:34 PM 58.5 °F 58.5 °F 100% 30.04 in 4.0 mi East 6.9 mph - N/A   Overcast
12:55 PM 58.5 °F 58.5 °F 100% 30.04 in 1.8 mi ENE 9.2 mph - N/A   Overcast
1:14 PM 58.5 °F 58.5 °F 100% 30.04 in 1.5 mi East 9.2 mph - N/A   Overcast
1:34 PM 58.5 °F 58.5 °F 100% 30.04 in 2.0 mi ENE 9.2 mph - N/A   Overcast
1:55 PM 58.8 °F 58.8 °F 100% 30.03 in 4.0 mi East 10.4 mph - N/A   Overcast
2:14 PM 58.8 °F 58.8 °F 100% 30.04 in 7.0 mi East 8.1 mph - N/A   Overcast
2:35 PM 58.6 °F 58.6 °F 100% 30.03 in 4.0 mi East 8.1 mph - N/A   Overcast
2:55 PM 58.5 °F 58.5 °F 100% 30.04 in 2.0 mi ENE 9.2 mph - N/A   Overcast
3:14 PM 58.5 °F 58.5 °F 100% 30.04 in 1.8 mi ENE 12.7 mph - N/A   Overcast
3:35 PM 58.5 °F 58.5 °F 100% 30.03 in 1.8 mi ENE 8.1 mph - N/A   Overcast
3:54 PM 58.5 °F 58.5 °F 100% 30.04 in 1.5 mi ENE 10.4 mph - N/A   Overcast
4:15 PM 58.3 °F 58.3 °F 100% 30.04 in 1.5 mi ENE 6.9 mph - N/A   Overcast
4:35 PM 57.0 °F 57.0 °F 100% 30.06 in 1.2 mi ENE 6.9 mph - N/A   Overcast
4:55 PM 57.7 °F 57.7 °F 100% 30.06 in 1.2 mi NE 8.1 mph - N/A   Overcast
5:14 PM 57.6 °F 57.6 °F 100% 30.06 in 2.0 mi ENE 6.9 mph - N/A Rain Light Rain
5:35 PM 57.9 °F 57.9 °F 100% 30.07 in 5.0 mi ENE 5.8 mph - N/A   Overcast
5:55 PM 57.0 °F 57.0 °F 100% 30.06 in 10.0 mi ENE 5.8 mph - N/A   Overcast
6:14 PM 56.5 °F 56.5 °F 100% 30.07 in 10.0 mi East 8.1 mph - N/A   Overcast
6:35 PM 56.5 °F 56.5 °F 100% 30.08 in 10.0 mi East 9.2 mph - N/A   Overcast
6:55 PM 56.3 °F 56.3 °F 100% 30.08 in 10.0 mi ENE 8.1 mph - N/A   Overcast
7:14 PM 55.9 °F 55.9 °F 100% 30.08 in 10.0 mi ENE 8.1 mph - N/A   Overcast
7:35 PM 55.9 °F 55.9 °F 100% 30.09 in 7.0 mi ENE 5.8 mph - N/A Rain Light Rain
7:54 PM 55.9 °F 55.9 °F 100% 30.09 in 10.0 mi ENE 8.1 mph - N/A Rain Rain
8:15 PM 55.9 °F 55.9 °F 100% 30.07 in 10.0 mi East 10.4 mph - N/A   Light Drizzle
8:35 PM 55.9 °F 55.9 °F 100% 30.08 in 10.0 mi East 6.9 mph - N/A   Overcast
8:54 PM 55.9 °F 55.9 °F 100% 30.09 in 10.0 mi East 5.8 mph - N/A Rain Light Rain
9:15 PM 55.9 °F 55.9 °F 100% 30.09 in 10.0 mi ENE 6.9 mph - N/A   Overcast
9:35 PM 55.9 °F 55.9 °F 100% 30.09 in 10.0 mi ENE 8.1 mph - N/A   Overcast
9:54 PM 55.9 °F 55.9 °F 100% 30.09 in 10.0 mi ENE 8.1 mph - N/A   Overcast
10:15 PM 55.9 °F 55.9 °F 100% 30.09 in 10.0 mi East 8.1 mph - N/A   Overcast
10:34 PM 55.9 °F 55.9 °F 100% 30.09 in 10.0 mi East 5.8 mph - N/A   Overcast
10:55 PM 55.9 °F 55.9 °F 100% 30.10 in 7.0 mi ENE 8.1 mph - N/A   Overcast
11:15 PM 55.9 °F 55.9 °F 100% 30.11 in 5.0 mi ENE 5.8 mph - N/A   Overcast
11:34 PM 55.9 °F 55.9 °F 100% 30.11 in 7.0 mi East 6.9 mph - N/A   Overcast
11:55 PM 55.9 °F 55.9 °F 100% 30.11 in 4.0 mi East 6.9 mph - N/A Rain Light Rain